Location: Jefferson
(30.9666°N, 81.7901°W)
Time: 07:56:45
(UTC+00:00)

ARIANE 6 FM1 Upper Stage - Pass Details

Date: 20 September 2024
Orbit: 563 x 595 km, 62.0° (Epoch: 12 October)

Event Time Altitude Azimuth Distance (km) Brightness Sun altitude
Rises 09:00:31 0° 348° (NNW) 2,834 6.4 -29.0°
Reaches altitude 10° 09:03:33 10° 10° (N) 1,932 5.7 -28.3°
Maximum altitude 09:06:17 16° 49° (NE) 1,570 5.6 -27.8°
Drops below altitude 10° 09:09:01 10° 88° (E) 1,928 6.3 -27.2°
Sets 09:12:02 0° 110° (ESE) 2,825 7.0 -26.6°
